Preview of NWS' New Version of Forecast
This preview is not operational and should not be used for support decisions.
Latest weather observations around

Greenville (KGNR)

Using English Units (Switch to International System of Units)
Date/ Time (EST) Wind (mph) Vis. (mi) Weather Sky Cond. Temp (°F) Rel. Humidity Wind Chill (°F) Heat Index (°F) Pressure Precip. (in)
Air Dwpt 6 hour Altimeter (inHg) Sea level (inHg) 1 hr 3 hr 6 hr
Max Min
Jan 16 16:56 SSW 5   Clear   25 20     81% 19   29.67 29.74      
Jan 16 15:56 S 3   Clear   26 20     77% 22   29.66 29.73 0 0  
Jan 16 14:56 Calm   Clear   26 19     74%     29.66 29.73      
Jan 16 13:56 7   Clear   26 19     74% 18   29.65 29.72      
Jan 16 12:56 5   Clear   26 19     74% 20   29.65 29.72      
Jan 16 11:56 5   Clear   24 18     77% 18   29.67 29.74      
Jan 16 10:56 S 9   Clear   23 17     78% 13   29.7 29.78      
Jan 16 09:56 ESE 3   Clear   20 15     81% 15   29.73 29.81      
Jan 16 08:56 SE 7   Clear   19 14     80% 10   29.73 29.81      
Jan 16 07:56 SSE 9   Clear   18 13     80% 7   29.75 29.83      
Jan 16 06:56 SSE 10   Clear   18 13     80% 6   29.77 29.85      
Jan 16 05:56 ESE 6   Clear   18 12     77% 10   29.79 29.87      
Jan 16 04:56 SSE 7   Clear   17 12     80% 8   29.8 29.88      
Jan 16 03:56 SE 9   Clear   17 12     80% 6   29.82 29.9      
Jan 16 02:56 SE 8   Clear   17 12     80% 7   29.85 29.93      
Jan 16 01:56 SE 9   Clear   16 10     77% 4   29.87 29.95      
Jan 16 00:56 SE 6   Clear   16 10     77% 7   29.87 29.95      
Jan 15 23:56 Calm   Clear   17 10     73%     29.89 29.97      
Notice The following observation data may not be complete
Jan 15 22:56 Calm   Clear     9      %     29.92 30.01      
Jan 15 21:56 Calm   Clear   13 7     77%     29.92 30.01      
Jan 15 20:56 Calm   Clear   12 6     77%     29.92 30.01      
Jan 15 19:56 Calm   Clear   17 9     70%     29.93 30.01      
Jan 15 18:56 NNW 3   Clear   17 9     70% 12   29.94 30.02      
Jan 15 17:56 NW 6   Clear   18 9     67% 10   29.93 30.01      
Jan 15 16:56 NW 5   Clear   19 10     67% 12   29.93 30.01      
Jan 15 15:56 NNW 3   Clear   19 10     67% 14   29.92 30      
Jan 15 14:56 NW 7   Clear   20 10     65% 11   29.91 30      
Jan 15 13:56 NNW 10   Clear   20 9     62% 9   29.9 29.98      
Jan 15 12:56 NW 9   Clear   20 9     62% 9   29.9 29.98      
Jan 15 11:56 NNW 8   Clear   18 8     65% 8   29.92 30      
Jan 15 10:56 NW 13   Clear   17 8     67% 4   29.93 30.02      
Jan 15 09:56 NNW 8   Clear   14 7     73% 3   29.94 30.03      
Jan 15 08:56 NNW 10   Clear   13 7     77% 0   29.94 30.03      
Jan 15 07:56 NNW 9   Clear   13 7     77% 1   29.92 30.01      
Jan 15 06:56 NNW 7   Clear   13 6     74% 3   29.91 30      
Jan 15 05:56 N 6   Clear   13 6     74% 4   29.9 29.99      
Jan 15 04:56 NNW 10   Clear   13 5     70% 0   29.89 29.98      
Jan 15 03:56 NW 13   Clear   13 4     67% -2   29.9 29.98      
Jan 15 02:56 N 9   Clear   12 2     63% 0   29.9 29.99      
Jan 15 01:56 NNW 13   Clear   11 1     64% -4   29.9 29.98      
Jan 15 00:56 NNW 13   Clear   11 1     64% -4   29.9 29.99      
Notice The following observation data may not be complete
Jan 14 23:56 NNW 13   Clear     0      %     29.92 30.01      
Jan 14 22:56 N 8   Clear   12 2     63% 0   29.95 30.04      
Jan 14 21:56 N 8   Clear   14 2     58% 3   29.95 30.05      
Jan 14 20:56 NNE 7   Clear   13 3     64% 3   29.96 30.06      
Jan 14 19:56 NNE 7   Clear   14 3     61% 4   29.97 30.07      
Jan 14 18:56 N 6   Clear   15 4     61% 6   29.99 30.09      
Jan 14 17:56 N 10   Clear   15 4     61% 3   30 30.1      
Jan 14 16:56 NNW 7   Clear   14 4     64% 4   30.01 30.11      
Jan 14 15:56 N 6   Clear   17 5     58% 9   30.02 30.12      
Jan 14 14:56 NNW 8   Clear   18 4     54% 8   30.04 30.14      
Jan 14 13:56 NW 7   Clear   18 3     51% 9   30.06 30.16      
Jan 14 12:56 NW 11   Clear   15 2     55% 2   30.07 30.17      
Jan 14 11:56 NW 8   Clear   14 1     56% 3   30.1 30.2      
Jan 14 10:56 Calm   Clear   9 0     66%     30.14 30.24      
Jan 14 09:56 NNE 3   Clear   6 -3     66% -1   30.16 30.27      
Jan 14 08:56 N 5   Clear   2 -6     69% -8   30.16 30.27      
Notice The following observation data may not be complete
Jan 14 07:56 NNE 5   Clear     -6      %     30.17 30.28      
Notice The following observation data may not be complete
Jan 14 06:56 3   Clear     -13      %     30.17 30.29      
Notice The following observation data may not be complete
Jan 14 05:56 N 5   Clear     -7      %     30.18 30.29      
Notice The following observation data may not be complete
Jan 14 04:56 NE 5   Clear     -8      %     30.19 30.3      
Notice The following observation data may not be complete
Jan 14 03:56 NNE 6   Clear     -8      %     30.21 30.33      
Notice The following observation data may not be complete
Jan 14 02:56 5   Clear     -5      %     30.22 30.33      
Notice The following observation data may not be complete
Jan 14 01:56 NNW 8   Clear     -5      %     30.23 30.34      
Notice The following observation data may not be complete
Jan 14 00:56 N 10   Clear     -5      %     30.23 30.34      
Notice The following observation data may not be complete
Jan 13 23:56 NNW 11   Clear     -5      %     30.24 30.35      
Jan 13 22:56 N 13   Clear   3 -4     72% -14   30.26 30.37      
Jan 13 21:56 NNW 11   Clear   3 -4     72% -13   30.28 30.4      
Jan 13 20:56 NNW 9   Clear   3 -4     72% -12   30.28 30.4      
Jan 13 19:56 N 8   Clear   4 -3     73% -9   30.28 30.4      
Jan 13 18:56 N 7   Clear   5 -2     72% -7   30.29 30.41      
Jan 13 17:56 NW 13   Clear   6 -2     69% -10   30.28 30.4      
May 15 06:56 SSE 3   Clear   57 47     69%     29.75 29.75      
May 13 14:56 S 9   Clear   65 23     20%     30.02 30.04      
May 13 09:56 3   Clear   56 26     31%     30.13 30.15      
May 12 18:56 NW 11   Clear   56 24     29%     30.01 30.03      
May 12 03:56 NNW 5   Clear   33 21     61% 29   30.11 30.15      
May 11 22:56 WNW 5   Clear   37 24     59% 33   30.08 30.12      
May 11 18:56 WNW 9   Clear   45 22     40% 40   30 30.03      
May 11 08:56     Clear   35 24     64%     29.85 29.88      
Jun 11 22:56 6   Clear   76 61     60%   76 29.85 29.82      
Jun 11 18:56 6   Clear   82 57     43%   82 29.78 29.76      
Jun 10 13:56 5   Clear   71 37     29%   69 29.9 29.9      
Jun 10 05:56 6   Clear   48 41     77% 45   29.84 29.85      
Notice The following observation data may not be complete
Jun 08 11:56     Clear            %              
Jun 06 08:56 ENE 6   Clear   48 39     71% 45   29.97 29.99      
Jun 06 06:56 E 9   Clear   44 39     82% 39   29.98 30      
Notice The following observation data may not be complete
Jun 06 02:56     Clear            %